CW0565 Weather Reports


time (UTC)temp
F
wind
direction
speed
knots
gust
knots
rain 1hr
in
rain 24hr
in
rain mn
in
humidity
%
barometer
mb
20260904144511 61 205 5.2 7.8 0.00 0.24 0.00 68 996.2
20260904143011 62 223 2.6 8.7 0.00 0.24 0.00 67 996.3
20260904141509 62 204 6.1 10.4 0.00 0.24 0.00 65 996.4
20260904140009 62 237 4.3 8.7 0.00 0.24 0.00 65 996.4
20260904134529 63 252 6.1 9.6 0.00 0.24 0.00 61 996.5
20260904133009 63 207 3.5 9.6 0.00 0.24 0.00 62 996.6
20260904131513 62 234 4.3 9.6 0.00 0.24 0.00 63 996.7
20260904130017 63 254 6.1 11.3 0.00 0.24 0.00 62 996.9
20260904123010 63 261 5.2 9.6 0.00 0.24 0.00 61 997.4
20260904121510 63 257 5.2 11.3 0.00 0.24 0.00 60 997.5
20260904120009 63 223 6.1 12.2 0.00 0.24 0.00 61 997.6
20260904114521 63 202 3.5 7.8 0.00 0.24 0.00 63 997.6
20260904113010 62 229 3.5 9.6 0.00 0.24 0.00 64 997.8
20260904111521 62 238 3.5 8.7 0.00 0.24 0.00 62 997.8
20260904110010 61 219 5.2 8.7 0.00 0.24 0.00 63 997.8
20260904104510 62 231 4.3 7.8 0.00 0.24 0.00 63 998.0
20260904103009 61 220 2.6 9.6 0.00 0.24 0.00 63 998.0
20260904101510 60 246 6.1 11.3 0.00 0.24 0.00 64 998.4
20260904100010 61 232 6.1 9.6 0.00 0.25 0.00 63 998.6
20260904094519 61 288 5.2 12.2 0.00 0.25 0.00 62 998.7
20260904093010 61 222 5.2 9.6 0.00 0.25 0.00 63 998.8
20260904091509 60 227 4.3 7.8 0.00 0.25 0.00 66 998.9
20260904090010 59 240 5.2 9.6 0.00 0.26 0.00 70 999.2
20260904084513 58 242 5.2 9.6 0.00 0.26 0.00 74 999.1
20260904083017 57 229 3.5 6.1 0.00 0.26 0.00 76 999.1
20260904081511 56 230 3.5 7.8 0.00 0.26 0.00 78 999.3
20260904080011 55 172 2.6 6.1 0.00 0.26 0.00 83 999.5
20260904074509 55 172 2.6 4.3 0.00 0.26 0.00 82 999.5
20260904073009 54 172 2.6 4.3 0.00 0.26 0.00 86 999.5
20260904071510 53 172 0.0 4.3 0.00 0.26 0.00 90 999.6
20260904070009 53 172 3.5 5.2 0.00 0.26 0.00 91 999.7
20260904064509 52 173 3.5 5.2 0.00 0.26 0.00 92 999.9
20260904063014 52 172 1.7 7.8 0.00 0.26 0.00 92 1000.0
20260904061509 51 160 1.7 4.3 0.00 0.26 0.00 93 999.8
20260904060012 50 160 2.6 4.3 0.00 0.26 0.00 93 1000.2
20260904054510 50 159 2.6 5.2 0.00 0.26 0.00 94 1000.1
20260904053011 50 246 0.0 3.5 0.00 0.26 0.00 93 1000.4
20260904051510 50 246 0.0 3.5 0.00 0.26 0.00 93 1000.7
20260904050009 50 246 1.7 3.5 0.00 0.26 0.00 92 1000.6
20260904044511 50 246 1.7 2.6 0.00 0.26 0.00 90 1000.8
20260904043013 51 246 0.0 0.0 0.00 0.26 0.00 87 1000.7
20260904041510 52 249 0.0 1.7 0.00 0.26 0.00 85 1000.8
20260904040009 52 246 0.0 4.3 0.00 0.26 0.00 86 1000.8
20260904034514 52 246 0.0 4.3 0.00 0.26 0.00 87 1000.9
20260904033009 53 244 0.0 1.7 0.00 0.26 0.00 86 1001.0
20260904031510 53 244 0.0 3.5 0.00 0.26 0.00 85 1000.9
20260904030009 53 246 3.5 7.0 0.00 0.26 0.00 85 1001.2
20260904024513 53 242 1.7 6.1 0.00 0.26 0.00 85 1001.2
20260904023011 53 242 0.0 7.0 0.00 0.26 0.00 85 1001.2
20260904021511 54 240 0.0 7.0 0.00 0.26 0.00 85 1001.3
20260904020010 54 240 0.0 3.5 0.00 0.26 0.00 85 1001.4
20260904014510 54 238 4.3 8.7 0.00 0.26 0.00 85 1001.6
20260904013011 54 242 1.7 8.7 0.00 0.26 0.00 84 1001.6
20260904011515 55 250 5.2 13.0 0.00 0.26 0.00 84 1001.6
20260904010011 55 265 4.3 8.7 0.00 0.26 0.00 85 1001.8
20260904004510 55 268 4.3 9.6 0.00 0.26 0.00 85 1001.7
20260904003014 55 294 0.9 7.8 0.00 0.26 0.00 84 1001.9
20260904001514 55 257 2.6 8.7 0.00 0.26 0.00 86 1002.0
20260904000009 55 267 1.7 8.7 0.00 0.26 0.00 86 1002.2
20260903234510 56 245 3.5 7.0 0.00 0.26 0.00 87 1001.9
20260903233009 56 244 2.6 9.6 0.00 0.26 0.00 88 1002.3
20260903231524 56 234 5.2 10.4 0.00 0.26 0.00 89 1002.6
20260903230009 56 242 5.2 11.3 0.00 0.26 0.00 90 1002.3
20260903224527 56 221 2.6 6.1 0.00 0.26 0.00 91 1002.5
20260903223011 56 252 4.3 9.6 0.00 0.26 0.00 92 1002.3
20260903221503 56 265 6.1 10.4 0.00 0.26 0.00 95 1002.7
20260903220009 56 192 2.6 6.1 0.00 0.26 0.26 96 1002.3
20260903214515 56 199 1.7 5.2 0.00 0.26 0.26 97 1002.7
20260903213010 55 192 2.6 5.2 0.00 0.26 0.26 100 1002.6
20260903211509 55 192 2.6 4.3 0.00 0.26 0.26 100 1002.5
20260903210010 55 192 1.7 4.3 0.00 0.26 0.26 100 1002.7
20260903204512 55 306 1.7 3.5 0.00 0.26 0.26 100 1002.7
20260903203009 55 315 0.0 0.0 0.01 0.26 0.26 100 1002.7
20260903201508 55 315 0.0 0.0 0.01 0.26 0.26 98 1002.6
20260903200010 55 315 0.0 0.0 0.01 0.26 0.26 98 1002.8
20260903194512 55 315 0.0 0.0 0.02 0.26 0.26 97 1003.0
20260903193011 55 314 0.0 2.6 0.04 0.25 0.25 97 1003.1
20260903191509 55 317 0.9 3.5 0.06 0.25 0.25 97 1003.1
20260903190009 55 316 0.0 2.6 0.08 0.25 0.25 97 1002.9
20260903184510 55 317 0.9 4.3 0.11 0.24 0.24 97 1002.8
20260903183011 55 331 2.6 4.3 0.08 0.21 0.21 96 1002.8
20260903181510 55 330 2.6 5.2 0.07 0.20 0.20 96 1002.6
20260903180011 55 14 1.7 7.8 0.05 0.17 0.17 96 1002.6
20260903174510 55 323 0.9 4.3 0.02 0.13 0.13 95 1002.6
20260903173009 55 9 0.0 1.7 0.02 0.13 0.13 95 1002.5
20260903171509 55 17 0.9 1.7 0.02 0.13 0.13 95 1002.6
20260903170010 55 19 0.0 0.9 0.02 0.13 0.13 94 1002.5
20260903164509 55 18 0.9 4.3 0.02 0.12 0.12 94 1002.5
20260903163010 55 73 0.9 3.5 0.03 0.11 0.11 93 1002.7
20260903161512 55 72 1.7 4.3 0.04 0.11 0.11 93 1003.1
20260903160012 56 343 0.0 0.9 0.04 0.10 0.10 93 1003.3
20260903154510 55 344 0.9 3.5 0.06 0.09 0.09 94 1003.4
20260903153014 56 343 0.0 2.6 0.05 0.08 0.08 94 1003.7
20260903151509 56 343 0.0 0.9 0.05 0.07 0.07 93 1004.0
20260903150009 55 343 0.0 2.6 0.04 0.06 0.06 93 1004.0